Preview of NWS' New Version of Forecast
This preview is not operational and should not be used for support decisions.
Latest weather observations around

Wilkes-Barre - Scranton, Wilkes-Barre / Scranton International Airport (KAVP)

Using English Units (Switch to International System of Units)
Date/ Time (EDT) Wind (mph) Vis. (mi) Weather Sky Cond. Temp (°F) Rel. Humidity Wind Chill (°F) Heat Index (°F) Pressure Precip. (in)
Air Dwpt 6 hour Altimeter (inHg) Sea level (inHg) 1 hr 3 hr 6 hr
Max Min
Sep 16 21:54 ESE 5 10 Clear CLR 63 59     87%     30.08 30.06      
Sep 16 20:54 ESE 3 10 Clear CLR 65 60     84%     30.08 30.06      
Sep 16 19:54 NNE 3 10 Clear CLR 68 59     73%     30.06 30.04      
Sep 16 18:54 NNE 7 10 Mostly Clear FEW031 72 61     68%   72 30.05 30.03      
Sep 16 17:54 NNW 3 10 Mostly Cloudy FEW035 BKN050 75 62     64%   75 30.04 30.02      
Sep 16 16:54 N 3 10 Cloudy FEW028 OVC042 74 62     66%   74 30.04 30.02      
Sep 16 15:54 NNW 6 10 Cloudy SCT027 OVC040 75 62     64%   75 30.04 30.02      
Sep 16 14:54 N 6 10 Cloudy BKN043 OVC055 75 61     62%   75 30.05 30.03      
Sep 16 13:54 N 5 10 Mostly Cloudy FEW026 SCT033 BKN070 76 62     62%   76 30.06 30.04      
Sep 16 13:33 NE 6   Mostly Cloudy FEW025 BKN032 BKN070 74 62     66%   74 30.07        
Sep 16 12:54 N 3   Mostly Cloudy BKN027 BKN065 75 62     64%   75 30.07 30.05      
Sep 16 12:47 6   Cloudy BKN028 OVC065 74 61     64%   74 30.07        
Sep 16 11:54 Calm   Mostly Cloudy FEW026 SCT065 BKN100 75 62     64%   75 30.08 30.06      
Sep 16 10:54 WNW 3 10 Cloudy BKN055 OVC100 73 62     68%   73 30.1 30.07      
Sep 16 09:54 N 3 10 Cloudy SCT060 OVC100 72 61     68%   72 30.11 30.08      
Sep 16 08:54 Calm 10 Cloudy OVC100 68 63     84%     30.1 30.08      
Sep 16 07:54 Calm 10 Cloudy OVC065 65 62     90%     30.1 30.09 0   0
Sep 16 06:54 ESE 3 10 Cloudy OVC060 65 61     87%     30.1 30.08      
Sep 16 05:54 S 3 9 Cloudy OVC060 64 62     93%     30.11 30.09      
Sep 16 04:54 Calm 10 Cloudy OVC070 64 61     90%     30.1 30.07   0  
Sep 16 03:54 Calm 10 Cloudy FEW042 OVC060 65 62     90%     30.09 30.06 0    
Sep 16 02:54 W 3 10 Cloudy OVC080 64 61     90%     30.1 30.08 0    
Sep 16 01:54 S 3 10 Mostly Cloudy SCT060 BKN085 65 60     84%     30.1 30.08      
Sep 16 00:54 Calm 10 Cloudy FEW075 OVC090 64 60     87%     30.1 30.08      
Sep 15 23:54 ESE 3 10 Clear CLR 64 60     87%     30.11 30.09      
Sep 15 22:54 ESE 3 10 Clear CLR 65 59     81%     30.11 30.09      
Sep 15 21:54 Calm 10 Clear CLR 64 60     87%     30.11 30.09      
Sep 15 20:54 Calm 10 Clear CLR 67 60     79%     30.11 30.09      
Sep 15 19:54 SSE 5 10 Clear CLR 69 61     75%     30.11 30.1      
Sep 15 18:54 Calm 10 Clear CLR 73 60     64%   73 30.11 30.09      
Sep 15 17:54 Calm 10 Partly Cloudy SCT110 75 60     60%   75 30.12 30.09      
Sep 15 16:54 Calm 10 Clear CLR 77 58     52%   77 30.12 30.1      
Sep 15 15:54 WNW 3 10 Clear CLR 76 58     54%   76 30.13 30.11      
Sep 15 14:54 WSW 5 10 Clear CLR 77 57     50%   77 30.14 30.12      
Sep 15 13:54 Calm 10 Clear CLR 74 55     52%   73 30.17 30.15      
Sep 15 12:54 W 8 10 Clear CLR 74 53     48%   73 30.19 30.16      
Sep 15 11:54 5 10 Clear CLR 70 56     61%     30.2 30.19      
Sep 15 10:54 Calm 10 Clear CLR 69 58     68%     30.22 30.2      
Sep 15 10:17 3 10 Partly Cloudy SCT023 67 58     73%     30.22        
Sep 15 09:54 N 5 10 Mostly Cloudy FEW012 BKN023 67 59     76%     30.23 30.21      
Sep 15 09:50 NNW 5 10 Mostly Cloudy SCT012 BKN021 66 59     78%     30.23        
Sep 15 09:24 WSW 3 10 Cloudy BKN012 OVC017 66 61     84%     30.22        
Sep 15 09:04 W 5 10 Mostly Cloudy BKN015 64 60     87%     30.22        
Sep 15 08:54 W 3 10 Mostly Cloudy BKN014 64 60     87%     30.22 30.2      
Sep 15 07:54 Calm 7 Cloudy OVC012 61 61     100%     30.22 30.2      
Sep 15 07:30 Calm 7 Cloudy FEW003 OVC010 61 61     100%     30.21        
Sep 15 07:19 WNW 3 7 Cloudy FEW003 OVC008 62 61     96%     30.21        
Sep 15 07:07 Calm 5 Fog/Mist BKN004 OVC008 62 61     96%     30.21        
Sep 15 07:00 NNW 3 2.5 Fog/Mist BKN002 OVC008 62 62     100%     30.21        
Sep 15 06:54 NNW 3 0.75 Fog/Mist BKN002 OVC008 62 62     100%     30.21 30.19      
Sep 15 06:45 W 3 1 Fog/Mist VV002 62 62     100%     30.21        
Sep 15 06:34 WSW 5 0.25 Fog VV002 63 62     97%     30.21        
Sep 15 06:07 W 5 0.25 Fog VV002 62 61     96%     30.2        
Sep 15 05:54 Calm 0.75 Fog/Mist VV002 62 61     96%     30.2 30.19      
Sep 15 05:10 W 3 0.75 Fog/Mist VV002 63 62     97%     30.2        
Sep 15 04:54 SW 3 0.25 Fog VV002 63 63     100%     30.2 30.18      
Sep 15 03:54 Calm 0.25 Fog VV002 63 63     100%     30.19 30.17      
Sep 15 03:45 Calm 0.25 Fog VV002 63 63     100%     30.19        
Sep 15 03:29 Calm 0.25 Fog VV004 63 62     97%     30.19        
Sep 15 03:14 Calm 0.25 Fog VV005 63 62     97%     30.19        
Sep 15 03:06 W 3 0.75 Fog/Mist VV005 63 62     97%     30.19        
Sep 15 03:04 Calm 1.25 Fog/Mist SCT005 63 62     97%     30.19        
Sep 15 02:54 Calm 4 Fog/Mist SCT005 63 63     100%     30.19 30.17      
Sep 15 01:54 Calm 4 Fog/Mist OVC006 64 63     96%     30.19 30.18      
Sep 15 01:32 Calm 3 Fog/Mist OVC008 64 63     96%     30.19        
Sep 15 01:13 Calm 1.25 Fog/Mist BKN009 64 63     96%     30.19        
Sep 15 00:54 Calm 0.5 Fog VV006 64 64     100%     30.19 30.17      
Sep 15 00:50 Calm 0.25 Fog VV006 64 64     100%     30.19        
Sep 14 23:54 Calm 0.25 Fog VV002 64 63     96%     30.19 30.18      
Sep 14 23:46 N 3 0.25 Fog VV005 63 62     97%     30.19        
Sep 14 23:42 N 5 1.25 Fog/Mist FEW010 FEW055 64 63     96%     30.19        
Sep 14 23:03 Calm 7 Mostly Cloudy SCT014 BKN055 66 64     93%     30.2        
Sep 14 22:54 SSW 3 6 Fog/Mist BKN014 65 64     97%     30.2 30.19      
Sep 14 22:17 SSW 3 5 Fog/Mist BKN014 65 64     97%     30.2        
Sep 14 21:54 Calm 5 Fog/Mist OVC015 66 65     96%     30.21 30.19      
Sep 14 21:21 Calm 4 Fog/Mist FEW004 OVC015 66 65     96%     30.21        
Sep 14 20:54 Calm 4 Fog/Mist FEW004 OVC014 67 65     93%     30.21 30.19      
Sep 14 20:19 Calm 4 Fog/Mist SCT004 OVC013 67 65     93%     30.2        
Sep 14 20:11 Calm 5 Fog/Mist BKN004 OVC014 66 65     96%     30.2        
Sep 14 19:54 Calm 3 Fog/Mist OVC005 66 65     96%     30.2 30.18     0
Sep 14 19:33 Calm 2 Fog/Mist BKN005 OVC014 66 65     96%     30.2        
Sep 14 19:02 Calm 2 Fog/Mist FEW004 OVC014 66 65     96%     30.18        
Sep 14 18:54 Calm 2 Fog/Mist OVC014 66 65     96%     30.18 30.17      
Sep 14 18:08 Calm 2 Fog/Mist FEW005 OVC014 66 65     96%     30.19        
Sep 14 18:01 WSW 3 2 Fog/Mist OVC016 66 65     96%     30.19        
Sep 14 17:54 WSW 3 3 Fog/Mist OVC016 66 64     93%     30.19 30.17 0    
Sep 14 17:52 WSW 3 3 Fog/Mist OVC016 66 64     94%     30.19   0    
Sep 14 17:40 Calm 2.5 Fog/Mist OVC016 66 64     93%     30.19   0    
Sep 14 16:54 WSW 3 6 Fog/Mist OVC014 67 64     90%     30.19 30.17 0 0  
Sep 14 16:34 SW 3 5 Fog/Mist OVC014 66 63     90%     30.19   0    
Sep 14 16:25 SW 5 2.5 Light Rain and Fog/Mist OVC015 67 63     87%     30.19   0    
Sep 14 15:54 SSW 6 10 Cloudy OVC015 68 62     81%     30.19 30.17      
Sep 14 14:54 SSW 7 10 Cloudy OVC017 68 62     81%     30.2 30.18 0    
Sep 14 13:54 6 10 Cloudy OVC017 68 61     78%     30.21 30.19      
Sep 14 12:54 SSW 10 10 Cloudy BKN018 OVC030 67 60     79%     30.23 30.22      
Sep 14 11:54 7 10 Cloudy BKN019 OVC029 66 59     78%     30.26 30.24      
Sep 14 10:54 SSW 8 9 Cloudy BKN018 OVC030 65 58     78%     30.27 30.26      
Sep 14 10:37 SW 7 9 Cloudy BKN019 OVC030 65 57     76%     30.29        
Sep 14 10:14 6 9 Cloudy SCT019 OVC031 64 57     78%     30.29        
Sep 14 09:54 WSW 7 10 Cloudy BKN019 OVC030 64 57     78%     30.29 30.27      
Sep 14 09:46 WNW 8 10 Cloudy SCT019 OVC030 65 57     76%     30.29        
Sep 14 08:54 SW 7 10 Cloudy OVC025 64 56     75%     30.29 30.27      
Sep 14 07:54 W 8 10 Cloudy SCT022 OVC029 63 55     75%     30.29 30.27      
Sep 14 06:54 6 10 Cloudy FEW022 OVC032 63 54     72%     30.29 30.27      
Sep 14 06:02 WSW 6 10 Cloudy SCT020 OVC031 62 54     75%     30.3        
Sep 14 05:54 SW 7 10 Cloudy BKN020 OVC031 62 54     75%     30.3 30.29      
Sep 14 05:43 WSW 8 10 Cloudy BKN020 OVC031 62 54     75%     30.29        
Sep 14 04:54 WSW 5 10 Cloudy SCT022 OVC031 62 54     75%     30.29 30.27      
Sep 14 04:11 S 3 10 Cloudy SCT024 OVC031 61 52     72%     30.3        
Sep 14 03:54 SW 5 10 Cloudy BKN024 OVC031 61 52     72%     30.31 30.29      
Sep 14 03:43 6 10 Cloudy BKN024 OVC031 61 52     72%     30.3        
Sep 14 02:54 Calm 10 Cloudy OVC032 61 51     70%     30.31 30.29      
Sep 14 01:54 5 10 Cloudy FEW027 OVC037 61 51     70%     30.34 30.32      
Sep 14 00:54 WSW 3 10 Cloudy OVC040 62 50     65%     30.35 30.33      
Sep 13 23:54 5 10 Cloudy OVC039 62 50     65%     30.37 30.36      
Sep 13 22:54 6 10 Cloudy OVC042 62 50     65%     30.37 30.36      
Sep 13 21:54 3 10 Clear   63 50     63%     30.39 30.37      
May 15 00:54 SW 3 7 Mostly Clear FEW028 66 63     90%     29.93 29.91      
May 14 20:54 Calm 10 Clear   70 61     73%     29.87 29.85      
May 14 12:54   10 Mostly Clear FEW033 70 59     68%     29.99 29.98      
May 14 06:54 Calm 6 Fog/Mist BKN005 OVC010 52 52     100%     30.02 30.02      
May 14 06:40 Calm 7 Cloudy BKN004 OVC010 52 52     100%     30.01        
May 14 06:29 Calm 6 Clear   52 52     100%     30.01        
May 14 05:54 Calm 8 Clear   52 51     97%     30 30      
May 13 23:12 W 3 8 Light Rain OVC013 52 51     97%     30.06   0    
May 13 21:54 Calm 7 Light Rain OVC019 51 51     100%     30.04 30.04 0    
May 13 04:54 NE 6 10 Cloudy OVC010 50 47     89% 48   30.1 30.1      
May 12 19:54 NNE 5 5 Light Rain and Fog/Mist SCT005 OVC110 54 53     97%     30.06 30.06 0   0
May 12 18:09 ENE 5 2.5 Heavy Rain and Fog/Mist FEW003 BKN011 OVC075 53 53     100%     30.06   0    
Jun 10 08:54 Calm 8 Light Rain FEW080 OVC100 65 61     87%     30.01 29.99 0    
Jun 09 13:54 WNW 6 10 Mostly Clear FEW070 76 51     42%   75 29.8 29.78      
Jun 09 09:54 W 8 10 Clear CLR 63 50     63%     29.81 29.8      
Jun 09 00:54 ESE 5 10 Clear CLR 52 43     71%     29.81 29.79      
Jun 08 13:54 E 6 10 Clear CLR 72 44     37%   71 29.95 29.94      
Jun 08 05:54 ESE 5 10 Clear CLR 47 45     93% 45   30.05 30.04      
Jun 07 19:54 S 3 10 Clear CLR 65 48     54%     30.01 30      
Jun 06 14:07   7 Thunderstorms and Rain SCT022 BKN029 OVC090 62 55     78%     29.75   0    
Jun 06 12:54 E 3 10 Light Rain FEW046 SCT070 OVC085 63 56     78%     29.74 29.73 0    
Notice The following observation data may not be complete
Jun 06 10:15   1.75 Heavy Rain and Fog/Mist FEW004 OVC012          %         0    
Jun 06 07:43 ENE 5 2 Fog/Mist BKN008 OVC016 57 56     96%     29.72   0    
Notice The following observation data may not be complete
Jun 06 00:11   1.75 Thunderstorms and Heavy Rain and Fog/Mist BKN015 OVC020          %         0    
Jun 05 19:54 Calm 8 Cloudy BKN075 OVC100 70 63     78%     29.68 29.66      
Jun 05 16:54 WSW 10 8 Cloudy OVC044 73 61     66%   73 29.69 29.67